Location: Gallinara
(44.0333°N, 8.2333°E)
Time: 17:01:40
(UTC+00:00)

ATLAS 2AS CENTAUR R/B - Pass Details

Date: 25 September 2020
Orbit: 939 x 1273 km, 63.7° (Epoch: 27 October)

Event Time Altitude Azimuth Distance (km) Brightness Sun altitude
Rises 03:46:31 0° 322° (NW) 4,129 5.5 -17.1°
Reaches altitude 10° 03:49:23 10° 320° (NW) 3,120 4.9 -16.6°
Maximum altitude 03:56:46 71° 239° (WSW) 1,177 2.7 -15.3°
Drops below altitude 10° 04:03:32 10° 156° (SSE) 2,859 5.1 -14.1°
Sets 04:06:03 0° 154° (SSE) 3,765 5.8 -13.7°
